DECAYED

CZ-6A DEB, 60978 (Decayed)

Orbit data source: Space-Track

CZ-6A DEB, 60978 was space debris in LEO originally from a launch on Tue, 06 Aug 2024 UTC launched from the Taiyaun Space Center, China (TSC). Debris objects in space refer to the collection of defunct objects orbiting the Earth. Examples of debris include non-operational satellites, rocket bodies, and fragments generated from explosions, collisions, or faulty payload assembly.

Not visible in the next 10 days
Identifier
60978, 2024-140MD
Orbit
Decayed
Country
Flag of CNCN / PRC
Related business
Manufacturer
SAST
Mission
Decayed spacecraft
Bus & Motor
Unknown
Mass
Unknown
Launch date (UTC)
2024-08-06 (2 years ago)
Launch vehicle
Unknown
Launch site
Taiyaun Space Center, China (TSC)
Object type
Payload
Rocket body
Debris
Shape & HBR
Unknown shape, 0.1 m
Radar Cross Section
Medium (>0.1 m² and <1 m²)

Expand to show TLE details & history
Last TLE update: 1 year ago

TLE from 1 year ago
0 CZ-6A DEB
1 60978U 24140MD  25012.18619215  .10188697 -10632-5  49541-2 0  9997
2 60978  89.7087 346.7329 0029137 168.8727 191.3223 16.20078596 22308
Epoch: 2025-01-12T04:28Z
TLE epoch observation values (Epoch: 2025-01-12T04:28:07.001Z)
Latitude
-0.00015°
Longitude
167.77852°
Altitude
241.53 km
Speed
7.751 km/s
True Right ascension
23h 06m 55s
True Declination
0° 00' 01"
Sunlit
Object was in daylight at epoch
Visualization orbit readout
Latitude
Unknown
Longitude
Unknown
Altitude
Unknown
Speed
Unknown
Apparent Right ascension
Unknown
Apparent Declination
Unknown
Sunlit
N/A
Visualization observer readout
Local Sidereal Time
07:20:44
Azimuth
Unknown
Elevation
Unknown
Doppler factor
Unknown
Orbital elements
Apogee altitude
235.22 km
Perigee altitude
196.793 km
Semi-major axis
6,594.143 km
Eccentricity
0.00291
Inclination
89.7087°
RAAN
346.7329°
Arg. of periapsis
168.8727°
True anomaly
191.25698°
Mean anomaly
191.3223°
Eccentric anomaly
191.28962°
Mean motion
4.05327 °/min
Orbital period
88.82 mins
BSTAR
0.0049541
Loading maneuver chart data...
Computing Atmospheric mass density...
Loading historical data...
Loading historical data...
Loading historical data...
Loading historical data...
Loading historical data...
Loading historical data...
Loading historical data...

Documentation

Showing up to 5 results
|